Meteo pe oră la Czworaki

Astăzi, 23 Aprilie, Vineri

Timp Temperatura Precipitaţii Vânt Presiune Umiditate
00:00 +1°C° 0 mm 4 m/s 749 mmHg 78%
01:00 0°C° 0 mm 4 m/s 749 mmHg 80%
02:00 0°C° 0 mm 4 m/s 749 mmHg 82%
03:00 0°C° 0 mm 4 m/s 749 mmHg 81%
04:00 -1°C° 0 mm 4 m/s 749 mmHg 80%
05:00 -1°C° 0 mm 4 m/s 749 mmHg 79%
06:00 0°C° 0 mm 5 m/s 750 mmHg 75%
07:00 +1°C° 0 mm 5 m/s 750 mmHg 72%
08:00 +2°C° 0 mm 6 m/s 750 mmHg 69%
09:00 +3°C° 0.1 mm 6 m/s 750 mmHg 64%
10:00 +4°C° 0.1 mm 6 m/s 750 mmHg 59%
11:00 +5°C° 0.1 mm 6 m/s 750 mmHg 54%
12:00 +5°C° 0.2 mm 6 m/s 750 mmHg 53%
13:00 +6°C° 0.2 mm 7 m/s 750 mmHg 52%
14:00 +6°C° 0.2 mm 8 m/s 750 mmHg 50%
15:00 +6°C° 0.3 mm 7 m/s 750 mmHg 57%
16:00 +5°C° 0.3 mm 7 m/s 750 mmHg 63%
17:00 +4°C° 0.3 mm 6 m/s 751 mmHg 69%
18:00 +3°C° 0.1 mm 5 m/s 751 mmHg 70%
19:00 +3°C° 0.1 mm 4 m/s 751 mmHg 70%
20:00 +3°C° 0.1 mm 3 m/s 751 mmHg 71%
21:00 +2°C° 0 mm 3 m/s 751 mmHg 70%
22:00 0°C° 0 mm 4 m/s 752 mmHg 69%
23:00 0°C° 0 mm 4 m/s 752 mmHg 68%

Mâine, 24 Aprilie, Sâmbătă

Timp Temperatura Precipitaţii Vânt Presiune Umiditate
00:00 -1°C° 0 mm 4 m/s 752 mmHg 71%
01:00 -1°C° 0 mm 3 m/s 752 mmHg 73%
02:00 -1°C° 0 mm 3 m/s 752 mmHg 76%
03:00 -1°C° 0 mm 3 m/s 752 mmHg 77%
04:00 -1°C° 0 mm 3 m/s 752 mmHg 79%
05:00 -2°C° 0 mm 3 m/s 752 mmHg 80%
06:00 0°C° 0 mm 3 m/s 752 mmHg 73%
07:00 +1°C° 0 mm 3 m/s 753 mmHg 66%
08:00 +3°C° 0 mm 4 m/s 753 mmHg 59%
09:00 +4°C° 0 mm 4 m/s 753 mmHg 53%
10:00 +5°C° 0 mm 4 m/s 753 mmHg 46%
11:00 +7°C° 0 mm 4 m/s 752 mmHg 40%
12:00 +7°C° 0 mm 5 m/s 752 mmHg 38%
13:00 +8°C° 0 mm 5 m/s 752 mmHg 37%
14:00 +8°C° 0 mm 5 m/s 752 mmHg 36%
15:00 +8°C° 0 mm 5 m/s 752 mmHg 37%
16:00 +8°C° 0 mm 5 m/s 751 mmHg 39%
17:00 +8°C° 0 mm 5 m/s 751 mmHg 40%
18:00 +6°C° 0 mm 4 m/s 751 mmHg 46%
19:00 +5°C° 0 mm 3 m/s 751 mmHg 52%
20:00 +4°C° 0 mm 2 m/s 751 mmHg 58%
21:00 +4°C° 0.1 mm 2 m/s 751 mmHg 66%
22:00 +2°C° 0.1 mm 3 m/s 751 mmHg 73%
23:00 +1°C° 0.1 mm 4 m/s 751 mmHg 80%

Poimâine, 25 Aprilie, Duminică

Timp Temperatura Precipitaţii Vânt Presiune Umiditate
00:00 0°C° 0.2 mm 4 m/s 751 mmHg 84%
01:00 0°C° 0.2 mm 3 m/s 751 mmHg 87%
02:00 -1°C° 0.2 mm 3 m/s 751 mmHg 90%
03:00 -2°C° 0 mm 3 m/s 751 mmHg 89%
04:00 -2°C° 0 mm 3 m/s 752 mmHg 89%
05:00 -4°C° 0 mm 3 m/s 752 mmHg 89%
06:00 -2°C° 0 mm 3 m/s 752 mmHg 81%
07:00 -1°C° 0 mm 4 m/s 752 mmHg 74%
08:00 0°C° 0 mm 4 m/s 752 mmHg 67%
09:00 +1°C° 0 mm 5 m/s 752 mmHg 60%
10:00 +3°C° 0 mm 5 m/s 752 mmHg 54%
11:00 +5°C° 0 mm 5 m/s 752 mmHg 48%
12:00 +5°C° 0.2 mm 5 m/s 752 mmHg 47%
13:00 +6°C° 0.2 mm 5 m/s 752 mmHg 46%
14:00 +6°C° 0.2 mm 5 m/s 751 mmHg 45%
15:00 +6°C° 0.1 mm 5 m/s 751 mmHg 45%
16:00 +6°C° 0.1 mm 5 m/s 751 mmHg 45%
17:00 +6°C° 0.1 mm 5 m/s 751 mmHg 44%
18:00 +5°C° 0.1 mm 5 m/s 751 mmHg 53%
19:00 +3°C° 0.1 mm 4 m/s 751 mmHg 62%
20:00 +2°C° 0.1 mm 3 m/s 751 mmHg 71%
21:00 +1°C° 0 mm 3 m/s 751 mmHg 76%
22:00 +2°C° 0 mm 2 m/s 751 mmHg 80%
23:00 +2°C° 0 mm 2 m/s 751 mmHg 84%

26 Aprilie, Luni

Timp Temperatura Precipitaţii Vânt Presiune Umiditate
00:00 +1°C° 0 mm 2 m/s 751 mmHg 85%
01:00 0°C° 0 mm 3 m/s 751 mmHg 86%
02:00 -1°C° 0 mm 3 m/s 751 mmHg 87%
03:00 -2°C° 0 mm 3 m/s 751 mmHg 88%
04:00 -2°C° 0 mm 3 m/s 751 mmHg 89%
05:00 -3°C° 0 mm 2 m/s 751 mmHg 90%
06:00 -2°C° 0 mm 3 m/s 751 mmHg 82%
07:00 0°C° 0 mm 3 m/s 751 mmHg 73%
08:00 0°C° 0 mm 4 m/s 751 mmHg 64%
09:00 +1°C° 0.1 mm 4 m/s 751 mmHg 58%
10:00 +2°C° 0.1 mm 5 m/s 751 mmHg 52%
11:00 +5°C° 0.1 mm 5 m/s 750 mmHg 46%
12:00 +5°C° 0.1 mm 5 m/s 750 mmHg 46%
13:00 +6°C° 0.1 mm 5 m/s 750 mmHg 46%
14:00 +6°C° 0.1 mm 5 m/s 749 mmHg 45%
15:00 +6°C° 0.2 mm 5 m/s 749 mmHg 47%
16:00 +6°C° 0.2 mm 5 m/s 749 mmHg 49%
17:00 +6°C° 0.2 mm 5 m/s 748 mmHg 51%
18:00 +4°C° 0.1 mm 4 m/s 748 mmHg 58%
19:00 +3°C° 0.1 mm 3 m/s 748 mmHg 65%
20:00 +2°C° 0.1 mm 3 m/s 748 mmHg 71%
21:00 +1°C° 0 mm 3 m/s 748 mmHg 75%
22:00 0°C° 0 mm 3 m/s 748 mmHg 78%
23:00 0°C° 0 mm 3 m/s 748 mmHg 81%

27 Aprilie, Marţi

Timp Temperatura Precipitaţii Vânt Presiune Umiditate
00:00 -1°C° 0 mm 3 m/s 748 mmHg 80%
01:00 -1°C° 0 mm 3 m/s 748 mmHg 80%
02:00 -1°C° 0 mm 3 m/s 748 mmHg 80%
03:00 -2°C° 0 mm 2 m/s 748 mmHg 79%
04:00 -2°C° 0 mm 2 m/s 748 mmHg 78%
05:00 -2°C° 0 mm 2 m/s 748 mmHg 78%
06:00 +1°C° 0 mm 2 m/s 748 mmHg 71%
07:00 +1°C° 0 mm 3 m/s 749 mmHg 64%
08:00 +3°C° 0 mm 3 m/s 749 mmHg 58%
09:00 +4°C° 0 mm 3 m/s 749 mmHg 53%
10:00 +7°C° 0 mm 3 m/s 748 mmHg 49%
11:00 +8°C° 0 mm 3 m/s 748 mmHg 44%
12:00 +9°C° 0 mm 3 m/s 748 mmHg 44%
13:00 +10°C° 0 mm 3 m/s 748 mmHg 44%
14:00 +10°C° 0 mm 2 m/s 747 mmHg 43%
15:00 +10°C° 0 mm 2 m/s 747 mmHg 44%
16:00 +12°C° 0 mm 1 m/s 747 mmHg 44%
17:00 +12°C° 0 mm 1 m/s 747 mmHg 44%
18:00 +10°C° 0 mm 1 m/s 747 mmHg 48%
19:00 +9°C° 0 mm 1 m/s 747 mmHg 53%
20:00 +7°C° 0 mm 2 m/s 746 mmHg 57%
21:00 +6°C° 0 mm 2 m/s 746 mmHg 60%
22:00 +6°C° 0 mm 2 m/s 746 mmHg 63%
23:00 +4°C° 0 mm 3 m/s 746 mmHg 65%

28 Aprilie, Miercuri

Timp Temperatura Precipitaţii Vânt Presiune Umiditate
00:00 +4°C° 0 mm 3 m/s 746 mmHg 67%
01:00 +4°C° 0 mm 3 m/s 745 mmHg 69%
02:00 +3°C° 0 mm 3 m/s 745 mmHg 70%
03:00 +3°C° 0 mm 3 m/s 744 mmHg 70%
04:00 +4°C° 0 mm 4 m/s 744 mmHg 69%
05:00 +4°C° 0 mm 4 m/s 743 mmHg 68%
06:00 +4°C° 0 mm 4 m/s 743 mmHg 68%
07:00 +5°C° 0 mm 4 m/s 743 mmHg 69%
08:00 +5°C° 0 mm 5 m/s 742 mmHg 69%
09:00 +5°C° 0.3 mm 4 m/s 742 mmHg 76%
10:00 +5°C° 0.3 mm 4 m/s 741 mmHg 83%
11:00 +5°C° 0.3 mm 4 m/s 741 mmHg 90%
12:00 +5°C° 0.1 mm 3 m/s 741 mmHg 91%
13:00 +5°C° 0.1 mm 3 m/s 740 mmHg 91%
14:00 +7°C° 0.1 mm 3 m/s 740 mmHg 92%
15:00 +7°C° 0.3 mm 3 m/s 740 mmHg 94%
16:00 +7°C° 0.3 mm 2 m/s 739 mmHg 95%
17:00 +7°C° 0.3 mm 2 m/s 739 mmHg 96%
18:00 +7°C° 1.2 mm 2 m/s 739 mmHg 97%
19:00 +7°C° 1.2 mm 2 m/s 739 mmHg 97%
20:00 +7°C° 1.2 mm 3 m/s 739 mmHg 98%
21:00 +5°C° 0.1 mm 3 m/s 739 mmHg 97%
22:00 +5°C° 0.1 mm 3 m/s 739 mmHg 97%
23:00 +5°C° 0.1 mm 4 m/s 740 mmHg 96%
Arată mai mult

Formular de consimțământ

Meteoprog și furnizorii noștri de servicii pot stoca și accesa date personale, precum cookies, identificatori de dispozitiv sau alte tehnologii similare pe dispozitivul dumneavoastră și procesa astfel de date pentru a personaliza conținutul și reclamele, dar și pentru a oferi caracteristici de social media și pentru a analiza traficul.

  • Stocarea și/sau accesarea informațiilor pe dispozitivul dumneavoastră

    Cookies, identificatori de dispozitiv sau alte informații pot fi stocate sau accesate pe dispozitiv în scopurile indicate mai sus.

  • Reclame și conținut personalizat, evaluarea reclamelor și a conținutului, informații despre audiențe și dezvoltarea produselor

    Reclamele și conținutul pot fi personalizate pe baza unui profil. Pot fi adăugate date suplimentare pentru a personaliza mai bine reclamele și conținutul. Performanța reclamelor și conținutului poate fi măsurată. Pot fi obținute informații despre utilizatorii care au văzut reclamele și conținutul. Aceste date pot fi utilizate pentru a dezvolta sau îmbunătăți experiența utilizatorilor, sistemele și software-ul.

Dând clic pe ‘Sunt de acord’, permiteți utilizarea cookie-urilor menționate, a identificatorilor de dispozitiv, balizelor web sau altor tehnologii similare. Setările pot fi modificate din browser-ul dispozitivului dumneavoastră.

În anumite scopuri, interesele legitime pot prima asupra consimțământului. Puteți citi mai multe informații în acest sens în Politica privind Confidențialitatea Datelor și Cookie.